Location: Dietrichsweiler
(49.0038°N, 10.1037°E)
Time: 09:38:58
(UTC+00:00)

Daily predictions for brighter satellites

Satellite Brightness Start Highest point End
(mag) Time Altitude Azimuth Time Altitude Azimuth Time Altitude Azimuth
Cosmos 1607 4.4 16:56:43 10° S 17:02:23 41° ESE 17:08:07 10° NE
USA 267 3.4 16:56:02 10° NE 17:02:36 79° NNW 17:09:08 10° WSW
Cosmos 1864 Rocket 4.5 16:56:34 10° N 17:02:41 69° ENE 17:08:48 10° SSE
Cosmos 1356 Rocket 3.9 16:59:17 10° N 17:02:51 33° ENE 17:06:27 10° SE
Cosmos 2297 Rocket 3.6 17:01:56 10° SE 17:05:25 17° E 17:08:56 10° ENE
USA 290 3.0 17:03:06 10° S 17:06:00 33° ESE 17:08:55 10° NE
Cosmos 1441 Rocket 3.1 17:02:46 10° SSW 17:06:06 73° WNW 17:09:27 10° N
In-Cosmos 22 Rocket 4.2 17:01:04 10° S 17:06:32 84° E 17:12:13 10° NNE
Cosmos 841 Rocket 4.5 17:02:30 10° SW 17:07:30 49° WNW 17:12:31 10° NNE
Cosmos 1814 Rocket 4.3 17:03:58 10° S 17:09:01 48° ESE 17:14:04 10° NNE
SAR-Lupe-4 3.6 17:06:05 10° SSE 17:09:34 54° ENE 17:13:04 10° N
SAR-Lupe-5 4.1 17:07:11 10° NNE 17:09:44 59° ESE 17:12:11 10° S
ATLAS 3B R/B 4.3 17:02:50 10° NW 17:10:09 46° WSW 17:17:03 10° S
Cosmos 1125 Rocket 4.1 17:08:08 10° N 17:12:53 35° ENE 17:17:37 10° ESE
IRS-1C 4.4 17:07:58 10° SSE 17:13:18 78° WSW 17:18:40 10° NNW
Cosmos 1455 Rocket 4.4 17:10:51 10° NNE 17:13:47 18° ENE 17:16:41 10° ESE
Cosmos 2221 Rocket 4.5 17:15:41 10° SSE 17:19:28 28° E 17:23:17 10° NNE
YAOGAN 1 2.6 17:16:33 10° SSE 17:20:41 54° ENE 17:24:52 10° N
Cosmos 2123 Rocket 4.0 17:15:19 10° S 17:21:38 83° E 17:27:59 10° N
Okean 2 Rocket 3.4 17:18:30 10° N 17:22:44 43° ENE 17:26:54 10° SSE
Cosmos 1900 4.5 17:17:54 10° SW 17:23:01 83° NW 17:28:06 10° NE
NOSS 3-3 (C) 4.3 17:18:39 10° S 17:23:19 35° ESE 17:28:44 10° NE
NOAA 6 4.4 17:18:54 10° SE 17:23:44 43° ENE 17:28:35 10° N
Spot 4 Rocket 4.1 17:20:59 10° SE 17:25:56 54° ENE 17:30:55 10° N
Okean 1 Rocket 3.4 17:22:01 10° N 17:26:13 41° ENE 17:30:21 10° SE
COSMOS 2428 2.7 17:22:40 10° NNW 17:28:25 73° ENE 17:34:09 10° SE
Cosmos 1980 4.1 17:26:43 10° NNW 17:32:04 41° NE 17:37:23 10° ESE
Sich 1 Rocket 3.9 17:27:54 10° N 17:32:17 45° ENE 17:36:39 10° SSE
ARIANE 5 R/B 3.5 17:27:37 10° S 17:32:36 52° W 17:37:34 10° NNW
Cosmos 158 Rocket 3.7 17:32:10 10° SSW 17:37:00 76° ESE 17:41:53 10° NNE
Aureole 3 Rocket 3.3 17:33:38 10° N 17:37:42 36° ENE 17:40:54 10° SE
Cosmos 2237 Rocket 2.6 17:32:19 10° NNW 17:37:42 42° NE 17:43:04 10° ESE
ATLAS 5 CENTAUR R/B 2.7 17:35:04 10° NW 17:39:15 50° SW 17:44:23 10° SSE
Cosmos 192 4.2 17:34:32 10° NNW 17:39:27 82° ENE 17:44:19 10° SSE
SeaSat 1 3.5 17:34:50 10° S 17:39:34 48° WSW 17:44:19 10° NW
Cosmos 1378 Rocket 3.6 17:35:50 10° S 17:40:09 84° W 17:44:29 10° N
Resurs 01 Rocket 1.9 17:36:54 10° SE 17:41:02 42° ENE 17:45:13 10° N
SKYMED 2 3.6 17:38:40 10° NNE 17:43:03 87° WNW 17:47:24 10° SSW
GP-B 3.6 17:39:44 10° S 17:44:03 62° W 17:48:24 10° N
Cosmos 2219 Rocket 4.2 17:42:19 10° NW 17:47:13 32° WSW 17:52:04 10° SSW
COSMO-SKYMED 1 2.4 17:43:16 10° NNE 17:47:22 62° E 17:51:26 10° S
Cosmos 2228 4.1 17:45:39 10° NNE 17:48:51 21° ENE 17:49:16 21° ENE
Cosmos 2292 Rocket 4.3 17:47:01 10° SW 17:49:42 35° WNW 17:52:31 10° N
PSLV R/B 3.3 17:46:45 10° SSE 17:50:51 71° ENE 17:54:57 10° N
NOSS 3-3 (A) 3.7 17:46:53 10° SSW 17:51:58 64° SE 17:57:36 12° NE
Cosmos 2322 4.1 17:46:56 10° NNW 17:52:38 70° WSW 17:58:18 10° SSE
Cosmos 1447 Rocket 4.5 17:47:38 10° S 17:53:37 58° E 17:59:37 10° NNE
Resurs 1-3 4.0 17:50:20 10° S 17:54:37 66° W 17:58:54 10° NNW
USA 306 1.2 17:51:52 10° WNW 17:54:40 73° SSW 17:55:02 53° SE
Cosmos 1025 Rocket 2.9 17:54:10 10° S 17:58:27 84° ESE 18:02:49 10° N
SJ-7 4.2 17:54:57 10° SSE 17:58:39 81° WSW 18:02:21 10° NNW
Cosmos 2285 Rocket 4.0 17:53:09 10° NNW 17:59:36 71° ENE 18:05:59 10° SSE
SL-16 R/B 3.4 17:56:25 10° N 18:00:56 24° NE 18:02:27 21° ENE
Cosmos 1375 Rocket 4.5 17:56:44 10° SSW 18:03:02 69° ESE 18:09:12 11° NE
Cosmos 2227 Rocket 3.4 18:00:04 10° SSE 18:03:35 21° ESE 18:03:35 21° ESE
SJ-6B 2.6 18:05:12 15° SE 18:07:49 50° ENE 18:11:11 10° N
SPOT 5 3.6 18:08:21 27° E 18:09:44 32° ENE 18:14:11 10° N
NOSS 3-4 (A) 3.9 18:03:28 10° NW 18:09:56 59° NE 18:15:10 21° ESE
NOSS 3-4 (C) 3.9 18:03:43 10° NW 18:10:12 58° NE 18:15:23 21° ESE
Cosmos 2233 Rocket 4.5 18:04:21 10° NNW 18:10:32 64° W 18:16:45 10° S
CZ-2D R/B 4.3 18:08:45 10° S 18:12:31 48° W 18:16:24 10° NNW
Cosmos 1674 Rocket 4.3 18:10:26 10° SSW 18:14:43 54° WNW 18:19:04 10° N
Cosmos 1513 Rocket 4.4 18:12:15 10° N 18:18:30 69° ENE 18:24:50 10° SSE
Cosmos 1867 4.5 18:17:56 10° WSW 18:23:11 47° NW 18:27:56 13° NNE
CZ-4 R/B 3.2 18:28:09 16° NNE 18:28:09 16° NNE 18:29:08 10° N
CZ-4B R/B 4.1 18:26:46 27° NE 18:26:46 27° NE 18:30:38 10° N
ATLAS 2AS CENTAUR R/B 4.2 18:20:30 10° WNW 18:26:15 27° NNW 18:31:15 12° NE
Helios 1A Rocket 4.3 18:28:45 19° S 18:28:45 19° S 18:29:47 10° S
Lacrosse 5 rocket 2.2 18:24:07 10° W 18:27:22 34° NNW 18:28:21 29° NNE
Atlas Centaur 2 4.5 18:23:52 10° SSW 18:27:43 15° S 18:30:59 11° SSE
Meteor 1-31 Rocket 4.2 18:32:59 22° N 18:32:59 22° N 18:34:27 10° N
CZ-4C R/B 2.2 18:28:20 10° SW 18:32:37 62° NW 18:36:09 21° NNE
IRAS Rocket 4.3 18:28:50 10° SSE 18:34:26 80° WSW 18:40:06 10° NNW
CRYOSAT 2 4.4 18:32:46 10° N 18:37:41 81° W 18:42:33 10° S
USA 267 3.9 18:41:48 26° NE 18:45:14 47° N 18:51:25 10° W
Cosmos 1464 Rocket 3.9 18:39:52 10° N 18:46:18 77° E 18:52:36 10° SSE
CSL-04 Debris 4.1 18:44:38 40° SE 18:46:31 64° ENE 18:51:54 10° N
ERS-1 Rocket 4.2 18:48:49 27° NNE 18:48:49 27° NNE 18:51:34 10° N
Cosmos 2297 Rocket 2.1 18:43:00 10° SSW 18:48:41 86° WNW 18:52:37 21° NNE
CSL-04 Rocket 3.5 18:47:26 38° SE 18:49:27 72° ENE 18:54:43 10° N
Cosmos 1570 Rocket 3.9 18:44:20 10° SSW 18:49:37 87° ESE 18:52:48 25° NNE
Cosmos 2344 3.8 18:43:45 10° S 18:51:00 39° ESE 18:51:12 39° ESE
BREEZE-M DEB (TANK) 4.5 18:47:06 10° WNW 18:51:11 63° SSW 18:56:52 28° SE
Cosmos 1455 Rocket 3.7 18:47:37 10° NNW 18:51:49 54° W 18:56:00 10° S
Cosmos 1975 Rocket 3.9 18:47:57 10° S 18:50:38 37° S 18:50:38 37° S
DNEPR-1 R/B 3.9 18:48:59 10° NW 18:53:46 67° NE 18:54:12 64° E
PAYLOAD B 4.1 19:05:27 66° ENE 19:05:27 66° ENE 19:10:59 10° N
Cosmos 2208 Rocket 3.9 19:01:34 10° SSW 19:06:48 87° ESE 19:07:29 69° NNE
Terra 3.6 19:11:53 20° N 19:11:53 20° N 19:13:26 10° N
NOSS 3-3 (C) 4.4 19:08:38 10° WSW 19:13:54 52° NW 19:16:44 30° NNE
Resurs 01 Rocket 3.9 19:14:04 10° SW 19:17:34 23° W 19:21:06 10° NW
Cosmos 2237 Rocket 3.4 19:16:29 10° NW 19:21:44 39° WSW 19:25:52 15° S
Cosmos 44 Rocket 4.1 19:18:03 10° SW 19:21:21 43° SW 19:21:21 43° SW
Cosmos 773 Rocket 4.3 19:18:58 10° SSW 19:24:12 65° WNW 19:25:06 55° NNW
Cosmos 2228 4.2 19:22:05 10° NNW 19:25:37 40° WNW 19:25:37 40° WNW
Orbus 7S? 4.4 19:22:22 10° WNW 19:28:58 55° WSW 19:28:58 55° WSW
SL-16 R/B 2.8 19:40:01 10° NNW 19:44:20 53° NW 19:44:20 53° NW
SPOT 5 4.1 19:47:22 37° WSW 19:47:34 37° W 19:52:14 10° NNW
Cosmos 2227 Rocket 3.2 19:42:00 10° SW 19:45:30 39° SW 19:45:30 39° SW
BREEZE-M DEB (TANK) 4.2 19:58:22 10° W 20:10:45 59° WSW 20:10:45 59° WSW
ATLAS 2AS CENTAUR R/B 4.2 20:13:52 10° NW 20:18:40 25° N 20:18:40 25° N
CZ-4C R/B 4.1 20:18:02 10° WNW 20:21:07 22° NNW 20:21:07 22° NNW
USA 267 4.2 20:29:08 41° NNW 20:29:08 41° NNW 20:33:48 10° WNW
Cosmos 2297 Rocket 4.3 20:29:19 10° W 20:33:33 21° NW 20:34:29 20° NNW
